Goodland, KS

8:16 AM MDT on June 26, 2017 (GMT -0600)
Renner-Goodland Municipal

Weather History for KGLD - November, 2014

Change the Weather History Date:

Friday, November 28, 2014

  Actual Average Record
Temperature  
Mean Temperature 56 °F 33 °F  
Max Temperature 80 °F 46 °F 80 °F (2014)
Min Temperature 31 °F 21 °F -12 °F (1952)
Degree Days  
Heating Degree Days 9 32  
Month to date heating degree days 777 714  
Since 1 July heating degree days 1205 1254  
Cooling Degree Days 0 0  
Month to date cooling degree days 0 0  
Year to date cooling degree days 920 941  
Growing Degree Days 8 (Base 50)    
Moisture  
Dew Point 18 °F    
Average Humidity 35    
Maximum Humidity 64    
Minimum Humidity 6    
Precipitation  
Precipitation 0.00 in 0.01 in 0.47 in (1997)
Month to date precipitation 0.02 0.67  
Year to date precipitation 16.41 19.16  
Snow  
Snow 0.00 in 0.20 in - ()
Month to date snowfall 0.2 4.2  
Since 1 July snowfall 0.2 6.8  
Since 1 September snowfall 0.2 6.8  
Snow Depth 0.00 in    
Sea Level Pressure  
Sea Level Pressure 29.80 in    
Wind  
Wind Speed 8 mph (WSW)    
Max Wind Speed 14 mph    
Max Gust Speed 17 mph    
Visibility 10 miles    
Events      
T = Trace of Precipitation, MM = Missing Value Source: NWS Daily Summary

Daily Weather History Graph

Daily Weather History Graph

Search for Another Location

Airport or City:

Trip Planner

Search our weather history database for the weather conditions in past years. The results will help you decide how hot, cold, wet, or windy it might be!

Date:

Astronomy

Nov. 28, 2014 Rise Set
Actual Time 6:44 AM MST 4:24 PM MST
Civil Twilight 6:15 AM MST 4:54 PM MST
Nautical Twilight 5:42 AM MST 5:27 PM MST
Astronomical Twilight 5:09 AM MST 5:59 PM MST
Moon 11:40 AM MST (11/28) 11:14 PM MST (11/28)
Length of Visible Light 10h 39m
Length of Day
9h 39m
Waxing Crescent, 43% of the Moon is Illuminated
Nov 28
Waxing Crescent
Nov 29
First Quarter
Dec 6
Full
Dec 14
Last Quarter
Dec 21
New

Hourly Weather History & Observations

Time (MST) Temp. Windchill Dew Point Humidity Pressure Visibility Wind Dir Wind Speed Gust Speed Precip Events Conditions
12:53 AM 36.0 °F 30.3 °F 24.1 °F 62% 29.98 in 10.0 mi WSW 6.9 mph - N/A   Clear
1:53 AM 36.0 °F 28.5 °F 23.0 °F 59% 29.97 in 10.0 mi SW 10.4 mph - N/A   Clear
2:53 AM 37.9 °F 31.5 °F 23.0 °F 55% 29.95 in 10.0 mi WSW 9.2 mph - N/A   Clear
3:53 AM 39.0 °F 32.8 °F 21.0 °F 49% 29.93 in 10.0 mi SW 9.2 mph - N/A   Clear
4:53 AM 41.0 °F 34.7 °F 21.0 °F 45% 29.92 in 10.0 mi SW 10.4 mph - N/A   Clear
5:53 AM 41.0 °F 34.3 °F 21.0 °F 45% 29.92 in 10.0 mi WSW 11.5 mph - N/A   Clear
6:53 AM 43.0 °F 37.2 °F 19.9 °F 40% 29.90 in 10.0 mi WSW 10.4 mph - N/A   Clear
7:53 AM 48.9 °F - 19.9 °F 32% 29.88 in 10.0 mi SSW 8.1 mph - N/A   Clear
8:53 AM 52.0 °F - 21.9 °F 31% 29.88 in 10.0 mi West 6.9 mph - N/A   Clear
9:53 AM 64.9 °F - 23.0 °F 20% 29.85 in 10.0 mi West 6.9 mph - N/A   Clear
10:53 AM 73.0 °F - 19.0 °F 13% 29.80 in 10.0 mi West 6.9 mph - N/A   Clear
11:53 AM 78.1 °F - 16.0 °F 10% 29.75 in 10.0 mi West 10.4 mph - N/A   Clear
12:53 PM 79.0 °F - 7.0 °F 6% 29.73 in 10.0 mi West 8.1 mph - N/A   Clear
1:53 PM 77.0 °F - 16.0 °F 10% 29.72 in 10.0 mi NNW 10.4 mph - N/A   Clear
2:53 PM 77.0 °F - 14.0 °F 9% 29.71 in 10.0 mi NNW 8.1 mph - N/A   Clear
3:53 PM 64.9 °F - 12.9 °F 13% 29.73 in 10.0 mi NNW 4.6 mph - N/A   Clear
4:53 PM 48.0 °F - 15.1 °F 27% 29.76 in 10.0 mi Calm Calm - N/A   Clear
5:53 PM 53.1 °F - 15.1 °F 22% 29.76 in 10.0 mi South 10.4 mph - N/A   Clear
6:53 PM 46.9 °F - 16.0 °F 29% 29.76 in 10.0 mi SSE 6.9 mph - N/A   Clear
7:53 PM 46.9 °F - 18.0 °F 32% 29.72 in 10.0 mi West 3.5 mph - N/A   Clear
8:53 PM 42.1 °F 37.7 °F 18.0 °F 38% 29.70 in 10.0 mi South 6.9 mph - N/A   Clear
9:53 PM 48.9 °F - 15.1 °F 26% 29.65 in 10.0 mi SSW 8.1 mph - N/A   Clear
10:53 PM 44.1 °F 38.6 °F 17.1 °F 34% 29.62 in 10.0 mi SW 10.4 mph - N/A   Clear
11:53 PM 42.1 °F 35.2 °F 17.1 °F 37% 29.60 in 10.0 mi West 12.7 mph - N/A   Clear